Huntsville, TX

1:48 PM CST on February 14, 2016 (GMT -0600)
Huntsville Municipal

Weather History for KUTS - October, 2012

Change the Weather History Date:

Wednesday, October 31, 2012

  Actual Average (KCXO) Record (KCXO)
Temperature  
Mean Temperature 68 °F -  
Max Temperature 82 °F 73 °F 90 °F (2004)
Min Temperature 55 °F 51 °F 41 °F (2011)
Cooling Degree Days 4    
Growing Degree Days 18 (Base 50)    
Moisture  
Dew Point 57 °F    
Average Humidity 72    
Maximum Humidity 93    
Minimum Humidity 42    
Precipitation  
Precipitation 0.00 in - - ()
Sea Level Pressure  
Sea Level Pressure 30.00 in    
Wind  
Wind Speed 5 mph (SW)    
Max Wind Speed 13 mph    
Max Gust Speed 20 mph    
Visibility 10 miles    
Events      
Averages and records for this station are not official NWS values.
T = Trace of Precipitation, MM = Missing Value Source: NWS Daily Summary

Daily Weather History Graph

Daily Weather History Graph

Search for Another Location

Airport or City:

Trip Planner

Search our weather history database for the weather conditions in past years. The results will help you decide how hot, cold, wet, or windy it might be!

Date:

Astronomy

Oct. 31, 2012 Rise Set
Actual Time 7:36 AM CDT 6:34 PM CDT
Civil Twilight 7:11 AM CDT 6:59 PM CDT
Nautical Twilight 6:43 AM CDT 7:27 PM CDT
Astronomical Twilight 6:15 AM CDT 7:56 PM CDT
Moon 7:54 PM CDT (10/31) 9:11 AM CDT (10/31)
Length of Visible Light 11h 47m
Length of Day
10h 57m
Full, 97% of the Moon is Illuminated
Oct 31
Full
Nov 6
Last Quarter
Nov 13
New
Nov 20
First Quarter
Nov 28
Full

Hourly Weather History & Observations

Time (CDT) Temp. Heat Index Dew Point Humidity Pressure Visibility Wind Dir Wind Speed Gust Speed Precip Events Conditions
12:53 AM 57.9 °F - 52.0 °F 81% 30.01 in 10.0 mi South 5.8 mph - N/A   Clear
1:53 AM 59.0 °F - 53.1 °F 81% 30.00 in 10.0 mi Variable 5.8 mph - N/A   Clear
2:53 AM 59.0 °F - 54.0 °F 83% 30.00 in 10.0 mi SW 5.8 mph - N/A   Clear
3:53 AM 59.0 °F - 54.0 °F 83% 29.99 in 10.0 mi SSW 6.9 mph - N/A   Clear
4:53 AM 59.0 °F - 55.0 °F 87% 29.98 in 10.0 mi SSW 5.8 mph - N/A   Clear
5:53 AM 57.9 °F - 54.0 °F 87% 30.00 in 10.0 mi SSW 3.5 mph - N/A   Clear
6:53 AM 55.9 °F - 54.0 °F 93% 30.01 in 9.0 mi Calm Calm - N/A   Clear
7:53 AM 57.0 °F - 55.0 °F 93% 30.01 in 10.0 mi SSW 3.5 mph - N/A   Clear
8:53 AM 62.1 °F - 57.9 °F 86% 30.04 in 10.0 mi SW 4.6 mph - N/A   Clear
9:53 AM 66.0 °F - 59.0 °F 78% 30.05 in 10.0 mi WSW 6.9 mph - N/A   Clear
10:53 AM 71.1 °F - 61.0 °F 70% 30.05 in 10.0 mi SW 10.4 mph - N/A   Clear
11:53 AM 75.0 °F - 62.1 °F 64% 30.04 in 10.0 mi WSW 12.7 mph 19.6 mph N/A   Clear
12:53 PM 78.1 °F - 61.0 °F 56% 30.01 in 10.0 mi WSW 8.1 mph - N/A   Clear
1:53 PM 79.0 °F - 60.1 °F 52% 29.99 in 10.0 mi West 8.1 mph - N/A   Clear
2:53 PM 81.0 °F 81.3 °F 59.0 °F 47% 29.96 in 10.0 mi West 8.1 mph 16.1 mph N/A   Clear
3:53 PM 82.0 °F 82.0 °F 57.9 °F 44% 29.94 in 10.0 mi West 4.6 mph - N/A   Clear
4:53 PM 82.0 °F 81.7 °F 57.0 °F 42% 29.94 in 10.0 mi WSW 5.8 mph - N/A   Partly Cloudy
5:53 PM 81.0 °F 81.1 °F 57.9 °F 45% 29.95 in 10.0 mi Calm Calm - N/A   Clear
6:53 PM 73.9 °F - 60.1 °F 62% 29.96 in 10.0 mi Calm Calm - N/A   Clear
7:53 PM 69.1 °F - 59.0 °F 70% 29.98 in 10.0 mi Calm Calm - N/A   Clear
8:53 PM 64.9 °F - 57.9 °F 78% 29.99 in 10.0 mi Calm Calm - N/A   Clear
9:53 PM 63.0 °F - 57.0 °F 81% 30.00 in 10.0 mi Calm Calm - N/A   Clear
11:53 PM 61.0 °F - 55.9 °F 83% 30.01 in 10.0 mi Calm Calm - N/A   Clear